Location: Egmondville
(43.5410°N, 81.4100°W)
Time: 17:51:15
(UTC+00:00)

Daily predictions for brighter satellites

Satellite Brightness Start Highest point End
(mag) Time Altitude Azimuth Time Altitude Azimuth Time Altitude Azimuth
Cosmos 1484 Rocket 3.3 12:02:41 10° N 12:05:36 27° WNW 12:08:31 10° SW
Cosmos 2278 Rocket 2.5 12:00:15 10° SW 12:05:38 45° WNW 12:11:04 10° NNE
Cosmos 1666 Rocket 3.5 12:02:48 10° S 12:07:08 79° W 12:11:32 10° N
COSMO-SKYMED 1 4.0 12:05:15 10° SW 12:07:49 16° W 12:10:26 10° NW
SL-8 Rocket 4.2 12:03:04 10° S 12:09:21 79° E 12:15:39 10° N
CENTAUR R/B 3.0 12:08:16 10° SSW 12:13:26 59° ESE 12:19:57 10° NE
Cosmos 1833 Rocket 4.3 12:12:07 10° WNW 12:14:56 14° W 12:17:43 10° SW
Gbstr 26 Del rocket 4.2 12:08:00 10° WSW 12:15:21 65° NNW 12:21:32 10° NE
Cosmos 1140 Rocket 3.9 12:17:06 10° SW 12:21:50 38° WNW 12:26:36 10° N
Cosmos 1763 Rocket 3.4 12:17:53 10° NNW 12:22:57 84° WSW 12:28:01 10° SSE
SL-08 R/B 4.2 12:18:25 10° SSE 12:23:10 55° ENE 12:27:58 10° N
CZ-2D R/B 2.8 12:20:09 10° N 12:23:13 54° WNW 12:26:15 10° SSW
Meteor 1-15 Rocket 4.5 12:19:28 10° S 12:25:14 83° E 12:31:09 10° NNE
MOS 1 Rocket 3.3 12:21:18 10° N 12:25:44 52° WNW 12:29:57 10° SSW
ARIANE 5 R/B 2.5 12:21:07 10° NNE 12:26:15 79° WNW 12:31:17 10° SSW
USA 238 DEB 4.4 22:33:02 10° NNW 22:39:57 42° NE 22:47:25 10° ESE
USA 238 4.4 22:33:09 10° NNW 22:40:02 41° NE 22:47:31 10° ESE
Cosmos 371 Rocket 3.4 22:41:02 10° NNW 22:45:50 85° WSW 22:50:35 10° SSE
BREEZE-M DEB (TANK) 4.0 22:39:39 10° W 22:46:15 50° NNW 22:49:51 10° ENE
USA 267 4.2 22:40:49 10° ENE 22:46:18 30° NNE 22:51:47 10° NW
Cosmos 1953 3.1 22:43:36 10° NNE 22:46:47 27° ENE 22:49:58 10° SE
YAOGAN 1 3.9 22:44:08 10° ESE 22:46:58 18° ENE 22:49:48 10° NNE
SJ 16-02 1.4 22:42:48 10° NNW 22:47:05 86° WSW 22:51:22 10° SSE
Cosmos 676 Rocket 4.0 22:42:21 10° NNW 22:47:30 63° ENE 22:52:40 10° SSE
CZ-2D R/B 3.2 22:45:30 10° SE 22:48:24 37° ENE 22:51:20 10° N
Nadezhda 1 Rocket 4.2 22:42:37 10° SSW 22:48:40 74° W 22:54:45 10° N
NOSS 2-3 (D) 4.4 22:54:40 10° NNW 22:59:56 74° NE 23:07:05 10° SE
Cosmos 1452 Rocket 4.3 22:57:15 10° SSE 23:01:50 31° E 23:06:26 10° NE
ISS -3.3 23:00:11 10° SW 23:03:24 48° SE 23:06:07 14° ENE
SL-8 Rocket 4.0 22:57:27 10° N 23:03:39 67° E 23:09:46 10° SSE
Meteor 1-15 Rocket 4.3 23:00:18 10° N 23:06:14 71° ENE 23:12:04 10° SSE
Cosmos 1470 Rocket 3.6 23:02:58 10° N 23:07:13 55° E 23:11:28 10° SSE
BREEZE-M (TANK) 1.2 23:05:37 10° WSW 23:07:54 77° NNW 23:09:31 16° ENE
NOSS 2-3 (C) 4.4 23:02:49 10° NNW 23:08:06 73° NE 23:15:28 10° SE
ATLAS 5 CENTAUR R/B 1.9 23:08:09 10° WSW 23:10:56 36° NW 23:13:52 10° NNE
Meteor 1-13 Rocket 4.4 23:08:18 10° SSW 23:13:59 81° W 23:19:50 10° N
IRS-P3 4.1 23:08:53 10° SSE 23:14:07 66° ENE 23:19:24 10° N
Cosmos 1933 Rocket 4.3 23:11:21 10° NNE 23:15:15 30° ENE 23:19:06 10° SE
Cosmos 864 Rocket 4.4 23:09:45 10° N 23:15:59 75° E 23:22:14 10° SSE
USA 276 1.6 23:14:42 10° SW 23:16:57 56° SSE 23:18:14 23° ENE
NOSS 3-4 (A) 3.1 23:14:36 10° SSW 23:19:47 71° ESE 23:25:02 12° NE
NOSS 3-4 (C) 3.1 23:14:44 10° SSW 23:19:56 71° ESE 23:25:11 12° NE
Okean 2 3.9 23:16:39 10° SSE 23:20:06 32° E 23:23:20 11° NNE
ERS-1 4.4 23:16:15 10° SSE 23:21:12 89° ENE 23:26:13 10° NNW
Spot 4 Rocket 4.4 23:17:04 10° SE 23:21:48 39° ENE 23:26:31 10° N
OPS 6432 4.5 23:19:16 10° NNW 23:22:30 47° NE 23:25:40 10° SE
RESURS DK-1 3.2 23:23:24 10° SSE 23:26:48 28° ESE 23:28:17 22° ENE
Cosmos 1821 Rocket 4.0 23:21:51 10° N 23:28:00 61° E 23:34:02 10° SSE
CZ-2D R/B 3.6 23:24:38 10° SE 23:28:16 41° ENE 23:31:53 10° N
Cosmos 1603 3.6 23:23:23 10° SSW 23:29:01 76° ESE 23:34:40 10° NNE
Cosmos 1697 Rocket 4.3 23:27:19 10° N 23:30:27 15° NE 23:30:30 15° NE
BREEZE-M DEB (TANK) 2.8 23:29:52 10° NW 23:32:06 32° NNE 23:32:34 29° NE
Cosmos 332 Rocket 3.6 23:28:55 10° NNW 23:33:42 76° ENE 23:38:29 10° SSE
Cosmos 2181 Rocket 3.9 23:32:11 10° S 23:38:18 84° E 23:44:32 10° N
Cosmos 1833 Rocket 4.0 23:35:28 10° SE 23:39:19 19° E 23:39:19 19° E
SL-16 R/B 4.5 23:36:40 10° N 23:41:35 26° WNW 23:46:31 10° WSW
Cosmos 1869 Rocket 3.9 23:37:46 10° N 23:41:55 40° ENE 23:46:01 10° SSE
ARIANE 5 R/B 3.6 23:37:18 10° S 23:42:20 49° W 23:47:24 10° NNW
CARTOSAT-1 3.9 23:40:34 10° SE 23:44:27 37° ENE 23:48:21 10° N
COSMO-SKYMED 1 2.4 23:43:33 13° NNE 23:47:14 64° ESE 23:51:18 10° S
SL-4 R/B 4.3 23:45:25 10° W 23:48:29 22° SW 23:51:29 10° S
Resurs 1-3 3.4 23:44:41 10° SSE 23:48:58 77° ENE 23:53:18 10° N
